Time,TemperatureF,DewpointF,PressureIn,WindDirection,WindDirectionDegrees,WindSpeedMPH,WindSpeedGustMPH,Humidity,HourlyPrecipIn,Conditions,Clouds,dailyrainin,SoftwareType,DateUTC
2014-01-29 00:00:00,24.3,16.9,29.97,North,-999,-999.0,0.0,73,0.00,,---,0.00,VWS V14.01,2014-01-29 05:00:00,
2014-01-29 00:01:00,24.3,16.9,29.97,North,-999,-999.0,0.0,73,0.00,,---,0.00,VWS V14.01,2014-01-29 05:01:00,
2014-01-29 00:03:00,24.3,16.9,29.97,North,-999,-999.0,0.0,73,0.00,,---,0.00,VWS V14.01,2014-01-29 05:03:00,
2014-01-29 00:05:00,24.3,16.9,29.97,North,-999,-999.0,0.0,73,0.00,,---,0.00,VWS V14.01,2014-01-29 05:05:00,
2014-01-29 19:16:00,26.1,9.1,30.09,North,-999,-999.0,0.0,48,0.00,,---,0.00,VWS V14.01,2014-01-30 00:16:00,
2014-01-29 19:20:00,25.7,8.7,30.08,North,-999,-999.0,0.0,48,0.00,,---,0.06,VWS V14.01,2014-01-30 00:20:00,
2014-01-29 19:25:00,25.6,9.1,30.08,North,-999,-999.0,0.0,49,0.00,,---,0.06,VWS V14.01,2014-01-30 00:25:00,
2014-01-29 19:31:00,25.4,8.9,30.09,North,-999,-999.0,0.0,49,0.00,,---,0.06,VWS V14.01,2014-01-30 00:31:00,
2014-01-29 19:36:00,24.8,8.8,30.08,North,-999,-999.0,0.0,50,0.00,,---,0.06,VWS V14.01,2014-01-30 00:36:00,
2014-01-29 19:41:00,24.7,8.7,30.08,North,-999,-999.0,0.0,50,0.00,,---,0.06,VWS V14.01,2014-01-30 00:41:00,
2014-01-29 19:46:00,24.3,8.8,30.09,North,-999,-999.0,0.0,51,0.00,,---,0.06,VWS V14.01,2014-01-30 00:46:00,
2014-01-29 19:51:00,24.1,9.0,30.09,North,-999,-999.0,0.0,52,0.00,,---,0.06,VWS V14.01,2014-01-30 00:51:00,
2014-01-29 19:56:00,23.9,8.9,30.09,North,-999,-999.0,0.0,52,0.00,,---,0.06,VWS V14.01,2014-01-30 00:56:00,
2014-01-29 20:01:00,23.8,8.8,30.09,North,-999,-999.0,0.0,52,0.00,,---,0.06,VWS V14.01,2014-01-30 01:01:00,
2014-01-29 20:06:00,23.4,8.4,30.09,North,-999,-999.0,0.0,52,0.00,,---,0.06,VWS V14.01,2014-01-30 01:06:00,
2014-01-29 20:11:00,23.0,8.4,30.09,North,-999,-999.0,0.0,53,0.00,,---,0.06,VWS V14.01,2014-01-30 01:11:00,
2014-01-29 20:16:00,22.7,8.6,30.09,North,-999,-999.0,0.0,54,0.00,,---,0.06,VWS V14.01,2014-01-30 01:16:00,
2014-01-29 20:21:00,22.3,8.2,30.08,North,-999,-999.0,0.0,54,0.00,,---,0.06,VWS V14.01,2014-01-30 01:21:00,
2014-01-29 20:27:00,22.0,8.3,30.08,North,-999,-999.0,0.0,55,0.00,,---,0.06,VWS V14.01,2014-01-30 01:27:00,
2014-01-29 20:32:00,21.6,7.9,30.08,North,-999,-999.0,0.0,55,0.00,,---,0.06,VWS V14.01,2014-01-30 01:32:00,
2014-01-29 20:37:00,21.2,7.6,30.08,North,-999,-999.0,0.0,55,0.00,,---,0.06,VWS V14.01,2014-01-30 01:37:00,
2014-01-29 20:42:00,21.2,7.6,30.08,North,-999,-999.0,0.0,55,0.00,,---,0.06,VWS V14.01,2014-01-30 01:42:00,
2014-01-29 20:48:00,20.9,7.7,30.08,North,-999,-999.0,0.0,56,0.00,,---,0.06,VWS V14.01,2014-01-30 01:48:00,
2014-01-29 20:53:00,20.5,7.3,30.08,North,-999,-999.0,0.0,56,0.00,,---,0.06,VWS V14.01,2014-01-30 01:53:00,
2014-01-29 20:58:00,20.5,7.7,30.09,North,-999,-999.0,0.0,57,0.00,,---,0.06,VWS V14.01,2014-01-30 01:58:00,
2014-01-29 21:03:00,20.5,8.1,30.09,North,-999,-999.0,0.0,58,0.00,,---,0.06,VWS V14.01,2014-01-30 02:03:00,
2014-01-29 21:08:00,20.5,8.1,30.08,North,-999,-999.0,0.0,58,0.00,,---,0.06,VWS V14.01,2014-01-30 02:08:00,
2014-01-29 21:14:00,20.5,8.1,30.08,North,-999,-999.0,0.0,58,0.00,,---,0.06,VWS V14.01,2014-01-30 02:14:00,
2014-01-29 21:19:00,20.3,7.9,30.08,North,-999,-999.0,0.0,58,0.00,,---,0.06,VWS V14.01,2014-01-30 02:19:00,
2014-01-29 21:24:00,20.0,8.0,30.08,North,-999,-999.0,0.0,59,0.00,,---,0.06,VWS V14.01,2014-01-30 02:24:00,
2014-01-29 21:29:00,19.6,7.6,30.09,North,-999,-999.0,0.0,59,0.00,,---,0.06,VWS V14.01,2014-01-30 02:29:00,
2014-01-29 21:34:00,19.4,7.8,30.09,North,-999,-999.0,0.0,60,0.00,,---,0.06,VWS V14.01,2014-01-30 02:34:00,
2014-01-29 21:40:00,19.1,7.5,30.09,North,-999,-999.0,0.0,60,0.00,,---,0.06,VWS V14.01,2014-01-30 02:40:00,
2014-01-29 21:45:00,18.9,7.7,30.09,North,-999,-999.0,0.0,61,0.00,,---,0.06,VWS V14.01,2014-01-30 02:45:00,
2014-01-29 21:50:00,18.5,7.3,30.09,North,-999,-999.0,0.0,61,0.00,,---,0.06,VWS V14.01,2014-01-30 02:50:00,
2014-01-29 21:55:00,18.4,7.2,30.10,North,-999,-999.0,0.0,61,0.00,,---,0.06,VWS V14.01,2014-01-30 02:55:00,
2014-01-29 22:00:00,18.2,7.0,30.09,North,-999,-999.0,0.0,61,0.00,,---,0.06,VWS V14.01,2014-01-30 03:00:00,
2014-01-29 22:06:00,18.0,6.8,30.10,North,-999,-999.0,0.0,61,0.00,,---,0.06,VWS V14.01,2014-01-30 03:06:00,
2014-01-29 22:11:00,18.0,6.8,30.10,North,-999,-999.0,0.0,61,0.00,,---,0.06,VWS V14.01,2014-01-30 03:11:00,
2014-01-29 22:16:00,18.0,7.2,30.10,North,-999,-999.0,0.0,62,0.00,,---,0.06,VWS V14.01,2014-01-30 03:16:00,
2014-01-29 22:21:00,17.8,7.0,30.10,North,-999,-999.0,0.0,62,0.00,,---,0.06,VWS V14.01,2014-01-30 03:21:00,
2014-01-29 22:26:00,17.6,7.2,30.11,North,-999,-999.0,0.0,63,0.00,,---,0.06,VWS V14.01,2014-01-30 03:26:00,
2014-01-29 22:32:00,17.5,7.1,30.11,North,-999,-999.0,0.0,63,0.00,,---,0.06,VWS V14.01,2014-01-30 03:32:00,
2014-01-29 22:37:00,17.3,7.2,30.11,North,-999,-999.0,0.0,64,0.00,,---,0.06,VWS V14.01,2014-01-30 03:37:00,
2014-01-29 22:42:00,17.1,7.0,30.11,North,-999,-999.0,0.0,64,0.00,,---,0.06,VWS V14.01,2014-01-30 03:42:00,
2014-01-29 22:47:00,17.1,7.0,30.11,North,-999,-999.0,0.0,64,0.00,,---,0.06,VWS V14.01,2014-01-30 03:47:00,
2014-01-29 22:52:00,17.1,7.0,30.11,North,-999,-999.0,0.0,64,0.00,,---,0.06,VWS V14.01,2014-01-30 03:52:00,
2014-01-29 22:58:00,16.7,7.0,30.11,North,-999,-999.0,0.0,65,0.00,,---,0.06,VWS V14.01,2014-01-30 03:58:00,
2014-01-29 23:03:00,16.6,6.9,30.11,North,-999,-999.0,0.0,65,0.00,,---,0.06,VWS V14.01,2014-01-30 04:03:00,
2014-01-29 23:08:00,16.6,6.9,30.11,North,-999,-999.0,0.0,65,0.00,,---,0.06,VWS V14.01,2014-01-30 04:08:00,
2014-01-29 23:13:00,16.6,6.9,30.11,North,-999,-999.0,0.0,65,0.00,,---,0.06,VWS V14.01,2014-01-30 04:13:00,
2014-01-29 23:18:00,16.4,7.0,30.11,North,-999,-999.0,0.0,66,0.00,,---,0.06,VWS V14.01,2014-01-30 04:18:00,
2014-01-29 23:24:00,16.0,6.7,30.11,North,-999,-999.0,0.0,66,0.00,,---,0.06,VWS V14.01,2014-01-30 04:24:00,
2014-01-29 23:29:00,15.8,6.5,30.11,North,-999,-999.0,0.0,66,0.00,,---,0.06,VWS V14.01,2014-01-30 04:29:00,
2014-01-29 23:34:00,15.7,6.4,30.11,North,-999,-999.0,0.0,66,0.00,,---,0.06,VWS V14.01,2014-01-30 04:34:00,
2014-01-29 23:39:00,15.5,6.2,30.11,North,-999,-999.0,0.0,66,0.00,,---,0.06,VWS V14.01,2014-01-30 04:39:00,
2014-01-29 23:44:00,15.3,6.3,30.11,North,-999,-999.0,0.0,67,0.00,,---,0.06,VWS V14.01,2014-01-30 04:44:00,
2014-01-29 23:50:00,15.3,6.3,30.11,North,-999,-999.0,0.0,67,0.00,,---,0.06,VWS V14.01,2014-01-30 04:50:00,
2014-01-29 23:55:00,15.1,6.5,30.11,North,-999,-999.0,0.0,68,0.00,,---,0.06,VWS V14.01,2014-01-30 04:55:00,